Wetterdaten: aktuell Sonntag, 06.09.2026 18:19
Datum Zeit Temp. A. Feuchte A. Luftdruck Regen Wind Richtung Richtung Taupunkt Windchill
06.09.2026 18:19 25,2 °C 20 % 1015,9 hPa 0,0 l/m² 3,1 km/h (1 Bft) SO 125 ° 0,6 °C 25,2 °C
06.09.2026 18:17 25,2 °C 20 % 1015,9 hPa 0,0 l/m² 5,2 km/h (1 Bft) SO 125 ° 0,6 °C 25,2 °C
06.09.2026 18:15 25,2 °C 20 % 1015,9 hPa 0,0 l/m² 5,2 km/h (1 Bft) SO 125 ° 0,6 °C 25,2 °C
06.09.2026 18:13 25,2 °C 20 % 1015,9 hPa 0,0 l/m² 0,7 km/h (0 Bft) NO±67.5° 35 ° 0,6 °C 25,2 °C
06.09.2026 18:11 25,3 °C 20 % 1015,9 hPa 0,0 l/m² 0,3 km/h (0 Bft) N 10 ° 0,7 °C 25,3 °C
06.09.2026 18:09 25,3 °C 20 % 1015,9 hPa 0,0 l/m² 0,3 km/h (0 Bft) N 10 ° 0,7 °C 25,3 °C
06.09.2026 18:07 25,4 °C 20 % 1015,9 hPa 0,0 l/m² 0,1 km/h (0 Bft) N 10 ° 0,8 °C 25,4 °C
06.09.2026 18:05 25,4 °C 20 % 1015,9 hPa 0,0 l/m² 4,0 km/h (1 Bft) N 5 ° 0,8 °C 25,4 °C
06.09.2026 18:03 25,4 °C 20 % 1015,9 hPa 0,0 l/m² 7,9 km/h (2 Bft) O-NO±67.5° 60 ° 0,8 °C 25,0 °C
06.09.2026 18:01 25,6 °C 20 % 1015,9 hPa 0,0 l/m² 7,9 km/h (2 Bft) O-NO±67.5° 60 ° 1,0 °C 25,3 °C
06.09.2026 17:58 25,6 °C 20 % 1015,9 hPa 0,0 l/m² 0,9 km/h (0 Bft) O±45° 80 ° 1,0 °C 25,6 °C
06.09.2026 17:56 25,6 °C 20 % 1015,9 hPa 0,0 l/m² 0,9 km/h (0 Bft) SO±22.5° 140 ° 1,0 °C 25,6 °C
06.09.2026 17:54 25,5 °C 20 % 1015,9 hPa 0,0 l/m² 5,9 km/h (2 Bft) S-SO±22.5° 150 ° 0,9 °C 25,5 °C
06.09.2026 17:52 25,5 °C 20 % 1015,9 hPa 0,0 l/m² 5,9 km/h (2 Bft) S-SO±22.5° 150 ° 0,9 °C 25,5 °C
06.09.2026 17:50 25,5 °C 20 % 1016,9 hPa 0,0 l/m² 1,2 km/h (1 Bft) SO 135 ° 0,9 °C 25,5 °C
06.09.2026 17:48 25,5 °C 20 % 1016,9 hPa 0,0 l/m² 0,4 km/h (0 Bft) SO 135 ° 0,9 °C 25,5 °C
06.09.2026 17:46 25,5 °C 20 % 1016,9 hPa 0,0 l/m² 0,4 km/h (0 Bft) SO 135 ° 0,9 °C 25,5 °C
06.09.2026 17:45 25,5 °C 20 % 1016,9 hPa 0,0 l/m² 0,0 km/h (0 Bft) SO 135 ° 0,9 °C 25,5 °C
06.09.2026 17:43 25,5 °C 20 % 1016,9 hPa 0,0 l/m² 2,5 km/h (1 Bft) SO 135 ° 0,9 °C 25,5 °C
06.09.2026 17:41 25,5 °C 20 % 1016,9 hPa 0,0 l/m² 0,7 km/h (0 Bft) SO 145 ° 0,9 °C 25,5 °C
06.09.2026 17:39 25,4 °C 20 % 1016,9 hPa 0,0 l/m² 0,7 km/h (0 Bft) SO 145 ° 0,8 °C 25,4 °C
06.09.2026 17:37 25,4 °C 20 % 1016,9 hPa 0,0 l/m² 0,6 km/h (0 Bft) S-SO 150 ° 0,8 °C 25,4 °C
06.09.2026 17:35 25,4 °C 20 % 1016,9 hPa 0,0 l/m² 3,1 km/h (1 Bft) S-SO 150 ° 0,8 °C 25,4 °C
06.09.2026 17:33 25,4 °C 20 % 1016,9 hPa 0,0 l/m² 5,4 km/h (1 Bft) SO±67.5° 135 ° 0,8 °C 25,4 °C
06.09.2026 17:31 25,4 °C 20 % 1016,9 hPa 0,0 l/m² 5,4 km/h (1 Bft) SO±67.5° 135 ° 0,8 °C 25,4 °C
06.09.2026 17:29 25,4 °C 20 % 1016,9 hPa 0,0 l/m² 0,0 km/h (0 Bft) S-SO 150 ° 0,8 °C 25,4 °C
06.09.2026 17:27 25,4 °C 20 % 1016,9 hPa 0,0 l/m² 3,3 km/h (1 Bft) S-SO 150 ° 0,8 °C 25,4 °C
06.09.2026 17:25 25,3 °C 20 % 1016,9 hPa 0,0 l/m² 3,3 km/h (1 Bft) S-SO 150 ° 0,7 °C 25,3 °C
06.09.2026 17:23 25,3 °C 20 % 1016,9 hPa 0,0 l/m² 5,6 km/h (1 Bft) SO 145 ° 0,7 °C 25,3 °C
06.09.2026 17:21 25,3 °C 20 % 1016,9 hPa 0,0 l/m² 4,5 km/h (1 Bft) SO±22.5° 145 ° 0,7 °C 25,3 °C
06.09.2026 17:19 25,3 °C 20 % 1016,9 hPa 0,0 l/m² 1,2 km/h (1 Bft) SO±22.5° 140 ° 0,7 °C 25,3 °C
06.09.2026 17:16 25,3 °C 20 % 1016,9 hPa 0,0 l/m² 1,2 km/h (1 Bft) SO±22.5° 140 ° 0,7 °C 25,3 °C
06.09.2026 17:14 25,4 °C 20 % 1016,9 hPa 0,0 l/m² 0,1 km/h (0 Bft) S-SO 150 ° 0,8 °C 25,4 °C
06.09.2026 17:12 25,4 °C 20 % 1016,9 hPa 0,0 l/m² 0,0 km/h (0 Bft) S-SO 150 ° 0,8 °C 25,4 °C
06.09.2026 17:10 25,4 °C 20 % 1016,9 hPa 0,0 l/m² 0,3 km/h (0 Bft) S-SO 150 ° 0,8 °C 25,4 °C
06.09.2026 17:08 25,4 °C 20 % 1016,9 hPa 0,0 l/m² 0,3 km/h (0 Bft) S-SO 150 ° 0,8 °C 25,4 °C
06.09.2026 17:06 25,4 °C 20 % 1016,9 hPa 0,0 l/m² 0,0 km/h (0 Bft) S-SO 150 ° 0,8 °C 25,4 °C
06.09.2026 17:04 25,5 °C 20 % 1016,9 hPa 0,0 l/m² 4,0 km/h (1 Bft) S-SO 150 ° 0,9 °C 25,5 °C
06.09.2026 17:03 25,5 °C 20 % 1016,9 hPa 0,0 l/m² 4,0 km/h (1 Bft) S-SO 150 ° 0,9 °C 25,5 °C
06.09.2026 17:01 25,5 °C 20 % 1016,9 hPa 0,0 l/m² 0,0 km/h (0 Bft) S-SO 150 ° 0,9 °C 25,5 °C
06.09.2026 16:59 25,5 °C 20 % 1016,9 hPa 0,0 l/m² 4,7 km/h (1 Bft) S-SO 150 ° 0,9 °C 25,5 °C
_ Min-Zeit 07:43 13:13 17:56 - 00:00 - - 13:13 07:43
Minimum _ 12,5 °C 20 % 1015,9 hPa - 0,0 km/h (0 Bft) - - -1,1 °C 12,5 °C
_ Max-Zeit 15:35 07:45 08:14 00:00 13:46 - - 09:34 15:35
Maximum _ 25,8 °C 75 % 1021,5 hPa 0,0 l/m² 10,8 km/h
SO (2 Bft)
- - 9,0 °C 25,8 °C
Durchschnitt _ 18,8 °C 45 % 1019,4 hPa #0,0 l/m² 1,9 km/h (1 Bft) SO - 4,9 °C 18,7 °C